星链-6035 (STARLINK-6035 )

导读 | 豆包AI

STARLINK-6035是美国太空探索技术公司(SpaceX)星链互联网卫星星座的一员,于2023年4月27日在美国发射升空。它属于星链项目第二代低轨卫星,主要用于为全球提供高速低延迟的宽带互联网服务,补全增强星链星座的全球覆盖能力,推动天基互联网网络的建设与服务扩容。

Basic Information
目录编号:
56323
目录名称:
STARLINK-6035
国际标识:
2023-058G
轨道中心:
EARTH
卫星名称:
星链-6035
卫星全名:
星链-6035 (STARLINK-6035 )
卫星状态:
在轨 (已飞行1099 天)
发射日期:
2023-04-27 UTC
国别 :
美国 (US)
星等 :
--
Orbit Information
数据来源 国际轨道数据 AOE轨道数据
星历时间 2026-04-30T07:30:27+0800
10小时前
查看轨道信息
2026-04-29T17:00:00+0800
1天前
查看轨道信息
半长轴 6927.578km 6927.614km
偏心率 0.0002005 0.0001526
轨道倾角 97.554° 97.563°
近地点辐角 102.652° 78.446°
升交点赤经 120.663° 120.077°
平近点角 257.493° 247.297°
近地点 548.052km 548.419km
远地点 550.83km 550.535km
周期 95.638分钟 95.639分钟
每日圈数 15.05673 15.056613
Detailed Information
固有亮度:
5
最大亮度:
2.5
卫星平台:
Starlink v1.5
覆盖范围:
全球
运营商:
太空探索技术公司
运营商所在国:
美国
制造商(研发单位):
太空探索技术公司
制造商所在国:
美国
使用方式:
暂无
Satellite Introduction
星链(Starlink)计划是由太空探索技术公司(SpaceX)提出的一个巨型低轨卫星互联网星座项目,计划在2019年至2024年间在太空搭建由约1.2万颗卫星组成的“星链”网络,其中1584颗将部署在地球上空550千米处的近地轨道,并从2020年开始工作。该卫星仍在工作。
2D Orbit Map
3D Orbit Map
Orbit Altitude Analysis Chart
Orbit Inclination Analysis Chart
Orbit Comprehensive Analysis Chart
View Comprehensive Chart